Regional Weather Roundup
Issued by NWS State College, PA

Home | Current Version | Previous Version | Text Only | Print | Product List | Glossary On
Versions: 1 2 3 4 5 6 7 8 9 10 11 12 13 14 15 16 17 18 19 20 21 22 23 24 25 26 27 28 29 30 31 32 33 34 35 36 37 38 39 40 41 42 43 44 45 46 47 48 49 50
000
ASUS41 KCTP 200210
RWRCTP
NATIONAL WEATHER SERVICE STATE COLLEGE PA
1000 PM EDT TUE SEP 19 2017

Note: "fair" indicates few or no clouds below 12,000 feet with no
significant weather and/or obstructions to visibility.

* = STATION THAT DOES NOT REPORT PRECIPITATION /E.G. RAIN...SNOW...ETC/
    THUNDER OR FOG.

PAZ002>004-007>009-013>016-020>023-029>032-200300-
WESTERN PENNSYLVANIA

CITY           SKY/WX    TMP DP  RH WIND       PRES   REMARKS
ERIE           CLEAR     68  63  84 CALM      29.98S
MEADVILLE      CLEAR     68  66  93 NE3       30.01S
FRANKLIN*      CLEAR     66  63  90 CALM      30.02S
NEW CASTLE     MOCLDY    66  65  96 CALM      30.01S
BEAVER COUNTY  NOT AVBL
BUTLER*        CLEAR     63  61  93 NE3       30.01R
PITTSBURGH INT PTCLDY    70  63  78 W3        29.99S
PITTSBURGH     CLEAR     73  59  61 S3        29.99S
INDIANA*       CLEAR     64  63  94 CALM      30.04R
LATROBE        CLEAR     64  64 100 CALM      30.01R
WASHINGTON CO* MOCLDY    64  63  94 CALM      30.00S
$$

PAZ004>006-010>012-017>019-024>028-033>037-041-042-045-046-049>053-200300-
CENTRAL PENNSYLVANIA

CITY           SKY/WX    TMP DP  RH WIND       PRES   REMARKS
BRADFORD       CLEAR     58  57  97 CALM      30.04S
DUBOIS         CLEAR     64  56  75 E6        30.02S
CLEARFIELD     CLEAR     62  60  93 N7        30.02S
JOHNSTOWN      CLEAR     65  62  90 E3        30.04S
ALTOONA        CLEAR     61  61 100 CALM      30.02S
STATE COLLEGE  NOT AVBL
WILLIAMSPORT   CLEAR     67  64  90 NW3       29.97R
SELINSGROVE    CLEAR     61  61 100 CALM      29.97R
FT INDIANTOWN  PTCLDY    74  65  73 E6        29.95R
CAPITAL CITY   CLEAR     67  62  84 SW5       29.94S
HARRISBURG     PTCLDY    70  65  84 N3        29.93S
YORK           CLEAR     64  63  96 CALM      29.94S
$$

PAZ038>040-043-044-047-048-054-055-060>062-067>071-200300-
EASTERN PENNSYLVANIA

CITY           SKY/WX    TMP DP  RH WIND       PRES   REMARKS
SCRANTON       PTCLDY    68  61  78 E3        29.98S
MOUNT POCONO   CLOUDY    68  58  70 NE9       30.01S
ALLENTOWN      CLOUDY    74  62  66 NE10      29.94R
QUAKERTOWN*    CLOUDY    70  66  88 NE8G17    29.95R
READING        PTCLDY    75  63  66 NE5       29.93R
LANCASTER      CLOUDY    72  67  84 N6        29.93S
COATESVILLE    CLOUDY    73  63  68 N8G15     29.94S
POTTSTOWN      CLOUDY    73  63  70 NE12      29.94R
BLUE BELL      CLOUDY    66  66 100 CALM      29.92S
DOYLESTOWN     NOT AVBL
WILLOW GROVE   NOT AVBL
NORTH PHILA    CLOUDY    72  65  78 N14G24    29.90S
PHILADELPHIA   CLOUDY    73  65  75 N15G26    29.88S
$$




USA.gov is the U.S. government's official web portal to all federal, state and local government web resources and services.